Regional Weather Roundup
Issued by NWS Pendleton, OR

Home | Current Version | Previous Version | Text Only | Print | Product List | Glossary On
Versions: 1 2 3 4 5 6 7 8 9 10 11 12 13 14 15 16 17 18 19 20 21 22 23 24 25 26 27 28 29 30 31 32 33 34 35 36 37 38 39 40 41 42 43 44 45 46 47 48 49 50
364
ASUS46 KPDT 271025
RWRPDT
PENDLETON REGIONAL WEATHER ROUNDUP
NATIONAL WEATHER SERVICE PENDLETON OREGON
300 AM PDT SAT AUG 27 2016

NOTE: FAIR INDICATES FEW OR NO CLOUDS BELOW 12,000 FEET WITH NO
SIGNIFICANT WEATHER AND/OR OBSTRUCTIONS TO VISIBILITY.

# INDICATES UNOFFICIAL STATION AND DATA

WAZ520-271110-
EAST SLOPES OF WASHINGTON CASCADES

CITY            SKY/WX      TMP DP  RH  WIND    PRES   REMARKS
#CLE ELUM HS    N/A         58  45  62  CALM    29.78S
#CLE ELUM 2NW   N/A         57  43  59  CALM    N/A
#GLENWOOD       N/A         49  44  83  CALM    29.78S
#MANASTASH CYN  N/A         56  43  62  CALM    29.84F
#NELSON 3SW     N/A         60  45  58  CALM    29.89S
#NILE           N/A         56  45  66  CALM    29.04F
#RONALD 2NW     N/A         67  N/A N/A NE2     29.75S
#TEANAWAY 4NE   N/A         55  44  66  CALM    N/A
#TROUT LAKE 1NE N/A         52  45  77  CALM    29.76F
$$

WAZ521-271110-
SIMCOE HIGHLANDS

CITY            SKY/WX      TMP DP  RH  WIND    PRES   REMARKS
#CENTERVILLE 1SWN/A         70  48  46  W6      29.68F
#GOLDENDALE 1NE N/A         55  22  27  N2      N/A
#GOLDENDALE 4W  N/A         55  45  69  CALM    29.86F
#GOODNOE HILLS  N/A         71  45  39  W7      29.72S
#LYLE 6NE       N/A         69  50  51  SE5     29.71S
$$

WAZ026-271110-
KITTITAS VALLEY

CITY            SKY/WX      TMP DP  RH  WIND    PRES   REMARKS
ELLENSBURG AP   PTCLDY      64  46  52  W9      29.79F
#ELLENSBURG CWU N/A         66  46  48  NW2     29.66F
#ELLENSBURG 3NE N/A         68  48  49  CALM    29.80F
#ELLENSBURG     N/A         68  49  51  W3      N/A
#KITTITAS 4N    N/A         62  42  48  E2      29.75F
#KITTITAS 3S    N/A         53  49  86  CALM    29.70F
#THORP 6N       N/A         62  44  52  NW3     29.72S
$$

WAZ027-271110-
YAKIMA VALLEY

CITY            SKY/WX      TMP DP  RH  WIND    PRES   REMARKS
SUNNYSIDE AP    N/A         54  50  86  N3      29.76F
YAKIMA AIRPORT  PTCLDY      60  47  62  NW9     29.77F
YAKIMA-VAGABOND N/A         64  43  46  NE2     29.76F
#DONALD 2NE     N/A         71  17  13  CALM    28.61F
#GRANDVIEW      N/A         59  48  67  CALM    29.73F
#MABTON         N/A         60  50  69  CALM    29.75S
#NACHES 2SW     N/A         70  48  46  W6      29.81F
#TERRACE HTS    N/A         64  49  58  CALM    29.67F
#TOPPENISH      N/A         62  51  67  CALM    29.64F
#WEST VALLEY    N/A         62  49  62  CALM    29.70S
#WHITE SWAN 5E  N/A         58  49  72  CALM    29.72S
#WILEY CITY 3W  N/A         59  41  51  CALM    29.75F
$$

WAZ028-271110-
LOWER COLUMBIA BASIN...WASHINGTON

CITY            SKY/WX      TMP DP  RH  WIND    PRES   REMARKS
PASCO           PTCLDY      67  49  52  E3      29.74F
PROSSER AWOS    N/A         59  50  72  N3      29.78F
RICHLAND AWOS   FAIR        70  50  49  CALM    29.74S
#BENTON CITY    N/A         65  48  54  NE1     29.62S
#CONNELL 5N     N/A         62  42  48  CALM    29.70F
#CONNELL 5NW    N/A         66  46  48  S2      29.66F
#ELTOPIA 6NW    N/A         70  48  46  CALM    28.73S
#KAHLOTUS       N/A         68  40  36  CALM    29.70F
#KENNEWICK 3S   N/A         72  41  33  N5      29.71F
#PATERSON       N/A         63  50  62  E2      29.72S
#SAGEMOOR 2W    N/A         68  49  51  CALM    29.56F
#TOUCHET 2S     N/A         59  45  60  CALM    29.71S
#WEST PASCO     N/A         66  49  54  CALM    29.70S
$$

WAZ029-271110-
FOOTHILLS OF THE BLUES...WASHINGTON

CITY            SKY/WX      TMP DP  RH  WIND    PRES   REMARKS
WALLA WALLA AP  FAIR        71  35  27  S3      29.77F
#CLYDE 6NW      N/A         63  38  39  CALM    29.70F
#DAYTON SCHOOL  N/A         62  33  34  VRB1    29.79F
#LOWDEN 2SE     N/A         56  46  69  CALM    29.72R
#PLEASANT VIEW 1N/A         69  37  31  SW7     29.72F
#PRESCOTT       N/A         51  42  71  CALM    29.72F
#WHITMAN COLLEGEN/A         73  41  31  S5      29.76S
#WAITSBURG 8N   N/A         58  13  17  N1      29.77S
#WALLA WALLA U  N/A         65  46  50  CALM    29.72
#WHITMAN MISSIONN/A         60  49  67  CALM    29.73F
$$

WAZ030-271110-
BLUE MOUNTAINS...WASHINGTON

CITY            SKY/WX      TMP DP  RH  WIND    PRES   REMARKS
#DIXIE 5SE      N/A         73  37  27  SE2     29.80F
$$

ORZ009-041-WAZ024-271110-
COLUMBIA RIVER GORGE

CITY            SKY/WX      TMP DP  RH  WIND    PRES   REMARKS
HOOD RIVER AP   FAIR        61  50  67  CALM    29.81S
THE DALLES AP   FAIR        67  48  50  CALM    29.77S
#ARLINGTON AIRPON/A         73  44  35  CALM    29.74F
#LYLE           N/A         74  51  44  NE1     29.77S
#MARYHILL 2W    N/A         N/A N/A N/A CALM    N/A
#MOSIER 1S      N/A         69  36  30  N2      29.82S
#MURDOCK        N/A         73  54  51  NW9     29.72S
#RUFUS DOT      N/A         75  51  43  VRB1    N/A
#SMITHVILLE     N/A         73  51  46  N9      29.76S

$$

ORZ510-271110-
NORTH CENTRAL OREGON

CITY            SKY/WX      TMP DP  RH  WIND    PRES   REMARKS
#ANTELOPE       N/A         54  34  47  NE1     29.67S
#COW CYN RST AREN/A         67  N/A N/A S6      N/A
#DUFUR 9E       N/A         73  44  35  W7      29.77F
#GRASS VALLEY 1SN/A         61  38  42  S6      29.84S
#KENT DOT       N/A         63  37  38  N8      N/A
#MAUPIN SCHOOL  N/A         65  43  45  CALM    29.87S
#SHANIKO 5WSW   N/A         65  35  33  N8      N/A
#TYGH VALLEY 2NEN/A         61  41  48  N1      29.78S
#WAPANITIA AIRPON/A         69  44  40  CALM    29.78S
#WASCO DOT      N/A         67  46  47  SW6     N/A
#WASCO 5NE      N/A         68  43  40  CALM    29.73F
$$

ORZ511-271110-
CENTRAL OREGON

CITY            SKY/WX      TMP DP  RH  WIND    PRES   REMARKS
BEND AIRPORT    N/A         N/A N/A N/A MISG    N/A
MADRAS AIRPORT  FAIR        59  41  51  S6      29.94S
PRINEVILLE AP   FAIR        50  28  42  CALM    29.97S
REDMOND AIRPORT FAIR        54  29  38  SE5     29.96S
#ASHWOOD SCHOOL N/A         54  30  40  CALM    29.90S
#BEND 1SW       N/A         52  35  52  CALM    N/A
#BEND-AWBREY    N/A         62  39  43  S7      29.81F
#CULVER         N/A         57  40  53  CALM    29.75F
#CULVER 8W      N/A         56  36  47  CALM    29.93F
#LAKE BILLY CHINN/A         62  N/A N/A SE3     29.98S
#MADRAS 4S      N/A         61  16  17  S13     29.99F
#POWELL BUTTE 3EN/A         54  34  47  E2      N/A
#POWELL BUTTE   N/A         59  36  42  CALM    29.85S
#PRINEVILLE 3N  N/A         48  39  71  CALM    29.93S
#WARM SPRINGS   N/A         58  41  53  CALM    29.87S

$$


ORZ509-271110-
EAST SLOPES OF OREGON CASCADES

CITY            SKY/WX      TMP DP  RH  WIND    PRES   REMARKS
SISTERS AWOS    N/A         54  37  52  CALM    29.95R
#BLUE BOX PASS  N/A         63  N/A N/A W1      N/A
#CAMP SHERMAN   N/A         45  34  65  CALM    29.90R
#LA PINE DOT    N/A         46  32  58  SE2     N/A
#LA PINE 4NW    N/A         42  31  65  CALM    29.92S
#LAVA BUTTE DOT N/A         53  36  52  CALM    N/A
#SISTERS AIRPOR N/A         53  43  69  CALM    30.17S
#SISTERS ODOT   N/A         50  N/A N/A CALM    N/A
#SISTERS 3N     N/A         50  31  48  CALM    29.90S
#SUNRIVER       N/A         45  36  70  CALM    29.89S
#SUTTLE LK DOT  N/A         52  40  63  W24G40  N/A
#TUMALO 3W      N/A         65  37  35  SW2     29.67S
#WANOGA BUTTE D N/A         61  29  30  NW8     N/A

$$

ORZ044-271110-
LOWER COLUMBIA BASIN...OREGON

CITY            SKY/WX      TMP DP  RH  WIND    PRES   REMARKS
HERMISTON       PTCLDY      61  44  53  SE3     29.76S
#BOARDMAN SCHOOLN/A         60  44  55  CALM    29.75S
#ECHO 8SW       N/A         68  42  39  SW2     29.77F
#I-84 EX 198 DOTN/A         67  41  39  NE8     N/A
#UMATILLA       N/A         60  46  60  CALM    29.67S
$$

ORZ507-271110-
NORTHERN FOOTHILLS OF THE BLUES

CITY            SKY/WX      TMP DP  RH  WIND    PRES   REMARKS
PENDLETON AIRPT PTCLDY      66  35  32  SE10    29.80F
#ADAMS 3WNW     N/A         54  35  48  CALM    29.75F
#ATHENA         N/A         69  39  33  CALM    29.77F
#CAYUSE         N/A         69  40  35  E5      29.73S
#HELIX SCHOOL   N/A         52  35  52  CALM    29.76S
#HELIX 3N       N/A         65  36  34  S9      29.80S
#HOLDMAN 5SE    N/A         66  38  36  CALM    29.80S
#HOLDMAN 6E     N/A         66  37  34  CALM    29.55S
#M-F GROVE ELEM N/A         73  35  25  CALM    29.75F
#M-FREEWATER 5SEN/A         68  41  37  CALM    29.78F
#PENDLETON DNTN N/A         57  33  40  NE2     29.83S
#PDT AQUATIC CTRN/A         58  33  39  CALM    29.84S
#PDT SUNRIDGE   N/A         55  39  55  CALM    29.81S
#PENDLETON 7NW  N/A         62  40  44  CALM    32.43S
#PILOT ROCK 1S  N/A         69  34  27  S5      29.84S
#PILOT ROCK     N/A         68  38  33  SW5     29.83S
#TUTUILLA       N/A         54  41  61  CALM    29.78F
#UMAPINE 2E     N/A         73  42  33  CALM    29.73R
#WESTON SCHOOL  N/A         74  32  21  NW6     29.68F

$$

ORZ508-271110-
SOUTHERN FOOTHILLS OF THE BLUES

CITY            SKY/WX      TMP DP  RH  WIND    PRES   REMARKS
LEXINGTON       FAIR        68  36  31  E6      29.86F
#AJAX           N/A         71  34  26  SE3     27.63S
#CONDON SCHOOL  N/A         62  35  36  CALM    29.88S
#CONDON 5W      N/A         68  35  29  SW9     29.90S
#FOSSIL SCHOOL  N/A         55  33  43  CALM    29.88S
#HEPPNER EOC    N/A         64  35  34  SE7     29.70S
#HEPPNER 4NE    N/A         66  37  34  CALM    29.75F
#LEXINGTON 2SE  N/A         68  39  35  SE2     29.80F
#MIKKALO        N/A         71  37  29  SE3     29.95S
#OLEX 4N        N/A         72  42  34  SW7     29.78S
#RUGGS 5NE      N/A         62  33  34  N2      30.07S
#RUGGS 2SW      N/A         67  37  33  S10     29.78S

$$

ORZ502-503-271110-
BLUE MOUNTAINS

CITY            SKY/WX      TMP DP  RH  WIND    PRES   REMARKS
MEACHAM         FAIR        42  32  67  CALM    29.95F
#BATTLE MTN DOT N/A         54  34  47  S2      N/A
#CUTSFORTH PARK N/A         45  36  70  CALM    29.76S
#HARDMAN 10S    N/A         58  34  40  CALM    29.88F
#HEPPNER 15SE   N/A         54  34  47  S1      29.88F
#LADD CYN SMT   N/A         46  35  65  CALM    N/A
#LADD CREEK ODOTN/A         53  37  54  S3      N/A
#LONG CREEK HS  N/A         53  36  52  CALM    29.96F
#N POWDER DOT   N/A         43  40  89  CALM    N/A
#PIKES PEAK     N/A         74  35  24  S17G26  27.99S
#TOLLGATE       N/A         53  35  50  CALM    29.86F
#TROY SCHOOL    N/A         57  44  62  CALM    29.66S
#UKIAH          N/A         41  34  76  CALM    29.81S
#WESTON 4E      N/A         68  36  31  SE3     29.70F
$$

ORZ505-271110-
JOHN DAY BASIN

CITY            SKY/WX      TMP DP  RH  WIND    PRES   REMARKS
JOHN DAY        FAIR        57  30  35  E7      29.98S
#DAYVILLE SCHOOLN/A         58  29  33  CALM    29.92R
#MITCHELL       N/A         57  35  43  E2      30.11S
#MITCHELL 8NW   N/A         69  35  28  CALM    29.96S
#MONUMENT HS    N/A         53  37  54  CALM    29.82R
#MT. VERNON 5SE N/A         59  33  37  CALM    29.94S
#SPRAY SCHOOL   N/A         54  N/A N/A CALM    N/A
$$

ORZ506-271110-
OCHOCO AND JOHN DAY HIGHLANDS

CITY            SKY/WX      TMP DP  RH  WIND    PRES   REMARKS
#BUCK CREEK DOT N/A         61  30  31  CALM    N/A
#HORSE RIDGE DO N/A         38  17  42  CALM    N/A
#KEYES SMT DOT  N/A         66  32  28  S17G26  N/A
#PAULINA SCHOOL N/A         50  25  37  CALM    N/A
#PINE MTN OBS   N/A         58  37  45  NW3     N/A
#PRAIRIE CITY   N/A         46  34  63  CALM    30.14F
#SENECA         N/A         40  N/A N/A CALM    N/A
#SENECA 9NW     N/A         39  26  59  CALM    29.88R
$$

ORZ049-271110-
GRANDE RONDE VALLEY

CITY            SKY/WX      TMP DP  RH  WIND    PRES   REMARKS
LA GRANDE       FAIR        46  27  47  CALM    29.91F
#COVE           N/A         53  39  59  CALM    29.95F
#COVE SCHOOL    N/A         52  38  59  CALM    29.94F
#COVE 6NW       N/A         46  34  63  CALM    29.80S
#ELGIN 3N       N/A         49  34  56  CALM    29.90S
#ELGIN 1E       N/A         48  36  63  CALM    N/A
#IMBLER SCHOOL  N/A         49  37  63  CALM    29.90S
#ISLAND CITY 4N N/A         62  50  65  CALM    29.84R
#LADD CYN DOT   N/A         59  38  45  SE15    N/A
#LA GRANDE ELEM N/A         57  38  49  CALM    29.93F
#UNION 1S       N/A         54  36  50  E1      29.72S
$$

ORZ050-271110-
WALLOWA COUNTY

CITY            SKY/WX      TMP DP  RH  WIND    PRES   REMARKS
JOSEPH AIRPORT  FAIR        52  34  50  S3      29.97S
#IMNAHA SCHOOL  N/A         57  41  55  N3      30.20S
#IMNAHA 10S     N/A         57  36  45  SW5     29.93S
#JOSEPH 3N      N/A         43  35  73  NE2     29.99S
#JOSEPH 3W      N/A         56  33  42  SW2     29.84S
#LOSTINE        N/A         45  37  73  CALM    29.63S
#LOSTINE 3SE    N/A         50  37  61  S5      29.95S
#MT HOWARD 8000 N/A         51  23  33  W7      30.19S
#PROMISE 1S     N/A         55  38  53  CALM    29.87F
#WALLOWA SCHOOL N/A         44  39  82  CALM    29.91S



$$



USA.gov is the U.S. government's official web portal to all federal, state and local government web resources and services.